W3TMB Weather Reports


time (UTC)temp
C
wind
direction
speed
KPH
gust
KPH
rain 1hr
cm
rain 24hr
cm
rain mn
cm
humidity
%
barometer
mb
20260504045135 3 322 0.0 0.0 0.00 0.00 0.00 89 1010.9
20260504044633 3 322 0.0 0.0 0.00 0.00 0.00 89 1011.0
20260504044129 3 322 0.0 0.0 0.00 0.00 0.00 89 1011.1
20260504043627 3 322 0.0 0.0 0.00 0.00 0.00 88 1011.0
20260504043124 3 322 0.0 0.0 0.00 0.00 0.00 88 1011.0
20260504042621 4 322 0.0 0.0 0.00 0.00 0.00 88 1010.7
20260504042118 3 322 0.0 0.0 0.00 0.00 0.00 88 1011.0
20260504041613 3 322 0.0 0.0 0.00 0.00 0.00 88 1010.7
20260504041110 3 322 0.0 0.0 0.00 0.00 0.00 88 1010.7
20260504040607 3 322 0.0 0.0 0.00 0.00 0.00 88 1010.8
20260504040104 4 322 0.0 0.0 0.00 0.00 0.00 88 1010.7
20260504035601 4 322 0.0 0.0 0.00 0.00 0.00 87 1010.7
20260504035057 4 322 0.0 0.0 0.00 0.00 0.00 87 1010.6
20260504034555 4 322 0.0 0.0 0.00 0.00 0.00 86 1010.7
20260504034051 4 322 0.0 0.0 0.00 0.00 0.00 86 1010.5
20260504033549 5 322 0.0 0.0 0.00 0.00 0.00 85 1010.6
20260504033047 5 322 0.0 0.0 0.00 0.00 0.00 84 1010.3
20260504032543 5 322 0.0 0.0 0.00 0.00 0.00 84 1010.5
20260504032040 5 322 0.0 0.0 0.00 0.00 0.00 83 1010.6
20260504031537 5 322 0.0 0.0 0.00 0.00 0.00 82 1010.5
20260504031033 5 322 0.0 0.0 0.00 0.00 0.00 81 1010.4
20260504030531 5 322 0.0 0.0 0.00 0.00 0.00 81 1010.4
20260504030027 5 322 0.0 0.0 0.00 0.00 0.00 80 1010.4
20260504025524 6 322 0.0 0.0 0.00 0.00 0.00 79 1010.4
20260504025021 6 322 0.0 0.0 0.00 0.00 0.00 79 1010.5
20260504024518 6 322 0.0 0.0 0.00 0.00 0.00 79 1010.6
20260504024015 6 322 0.0 0.0 0.00 0.00 0.00 78 1010.6
20260504023511 6 322 0.0 0.0 0.00 0.00 0.00 78 1010.4
20260504023007 6 322 0.0 0.0 0.00 0.00 0.00 77 1010.7
20260504022503 6 322 0.0 0.0 0.00 0.00 0.00 75 1010.4
20260504022000 6 322 0.0 0.0 0.00 0.00 0.00 75 1010.5
20260504021457 6 322 0.0 0.0 0.00 0.00 0.00 75 1010.5
20260504020954 6 322 0.0 0.0 0.00 0.00 0.00 75 1010.5
20260504020451 7 322 0.0 0.0 0.00 0.00 0.00 74 1010.5
20260504015948 7 322 0.0 0.0 0.00 0.00 0.00 74 1010.4
20260504015444 7 322 0.0 0.0 0.00 0.00 0.00 74 1010.1
20260504014940 7 322 0.0 0.0 0.00 0.00 0.00 73 1010.3
20260504014436 7 322 0.0 0.0 0.00 0.00 0.00 72 1010.1
20260504013933 7 322 0.0 0.0 0.00 0.00 0.00 72 1010.0
20260504013432 7 322 0.0 0.0 0.00 0.00 0.00 70 1010.3
20260504012927 8 322 0.0 0.0 0.00 0.00 0.00 70 1010.2
20260504012425 8 322 0.0 0.0 0.00 0.00 0.00 69 1010.2
20260504011922 8 322 0.0 0.0 0.00 0.00 0.00 69 1010.2
20260504011419 8 322 0.0 0.0 0.00 0.00 0.00 67 1009.9
20260504010915 8 322 0.0 0.0 0.00 0.00 0.00 66 1010.1
20260504010411 9 322 0.0 0.0 0.00 0.00 0.00 64 1009.9
20260504005907 10 322 0.0 0.0 0.00 0.00 0.00 62 1009.9
20260504005404 10 322 0.0 0.0 0.00 0.00 0.00 59 1010.0
20260504004902 10 322 0.0 0.0 0.00 0.00 0.00 58 1009.6
20260504004400 10 322 0.0 0.0 0.00 0.00 0.00 56 1009.7
20260504003855 11 322 0.0 0.0 0.00 0.00 0.00 55 1009.5
20260504003352 12 321 0.0 1.6 0.00 0.00 0.00 49 1009.7
20260504002849 12 323 0.0 1.6 0.00 0.00 0.00 47 1009.7
20260504002346 12 329 1.6 1.6 0.00 0.00 0.00 46 1009.6
20260504001844 12 321 1.6 1.6 0.00 0.00 0.00 45 1009.5
20260504001341 13 333 1.6 1.6 0.00 0.00 0.00 44 1009.5
20260504000837 13 326 1.6 3.2 0.00 0.00 0.00 43 1009.6
20260504000334 13 306 3.2 4.8 0.00 0.00 0.00 42 1009.5
20260503235832 13 324 3.2 4.8 0.00 0.00 0.00 42 1009.4
20260503235330 13 305 4.8 8.0 0.00 0.00 0.00 41 1009.5
20260503234827 14 326 0.0 3.2 0.00 0.00 0.00 41 1009.3
20260503234324 14 329 1.6 8.0 0.00 0.00 0.00 41 1009.5
20260503233822 14 256 6.4 11.3 0.00 0.00 0.00 39 1009.4
20260503233318 15 240 6.4 9.7 0.00 0.00 0.00 39 1009.5
20260503232814 15 283 4.8 16.1 0.00 0.00 0.00 38 1009.2
20260503232312 15 297 6.4 12.9 0.00 0.00 0.00 38 1009.3
20260503231810 15 338 6.4 16.1 0.00 0.00 0.00 38 1009.3
20260503231307 15 334 4.8 12.9 0.00 0.00 0.00 38 1009.3
20260503230802 15 270 3.2 14.5 0.00 0.00 0.00 37 1009.3
20260503230300 15 278 8.0 12.9 0.00 0.00 0.00 37 1009.3
20260503225757 15 309 6.4 11.3 0.00 0.00 0.00 37 1009.1
20260503225252 16 271 3.2 8.0 0.00 0.00 0.00 37 1009.1
20260503224749 16 326 1.6 11.3 0.00 0.00 0.00 37 1009.1
20260503224247 15 307 9.7 12.9 0.00 0.00 0.00 36 1009.1
20260503223744 15 258 4.8 11.3 0.00 0.00 0.00 39 1009.2
20260503223242 16 260 6.4 11.3 0.00 0.00 0.00 36 1009.1
20260503222738 16 320 6.4 9.7 0.00 0.00 0.00 37 1009.1
20260503222236 15 256 6.4 11.3 0.00 0.00 0.00 37 1009.1
20260503221734 15 333 3.2 11.3 0.00 0.00 0.00 39 1009.2
20260503221232 15 236 8.0 14.5 0.00 0.00 0.00 38 1009.3
20260503220728 15 235 3.2 11.3 0.00 0.00 0.00 39 1009.4
20260503220225 15 314 11.3 22.5 0.00 0.00 0.00 38 1009.2
20260503215721 15 346 8.0 9.7 0.00 0.00 0.00 37 1009.3
20260503215219 15 35 14.5 17.7 0.00 0.00 0.00 36 1009.6
20260503214717 15 247 8.0 16.1 0.00 0.00 0.00 37 1009.4
20260503214213 15 239 4.8 16.1 0.00 0.00 0.00 37 1009.1
20260503213711 15 330 3.2 8.0 0.00 0.00 0.00 37 1009.2
20260503213208 15 323 8.0 16.1 0.00 0.00 0.00 37 1009.5
20260503212705 16 245 6.4 17.7 0.00 0.00 0.00 36 1009.1
20260503212203 16 308 4.8 9.7 0.00 0.00 0.00 36 1009.2
20260503211700 16 342 3.2 12.9 0.00 0.00 0.00 36 1009.3
20260503211155 16 277 4.8 11.3 0.00 0.00 0.00 37 1009.2
20260503210652 15 222 4.8 11.3 0.00 0.00 0.00 37 1009.1
20260503210149 15 312 3.2 12.9 0.00 0.00 0.00 36 1009.0
20260503205644 16 311 6.4 12.9 0.00 0.00 0.00 35 1009.0
20260503205141 16 241 4.8 14.5 0.00 0.00 0.00 35 1009.1
20260503204637 15 337 8.0 17.7 0.00 0.00 0.00 37 1009.2
20260503204135 16 262 14.5 20.9 0.00 0.00 0.00 35 1009.4
20260503203632 16 22 6.4 11.3 0.00 0.00 0.00 36 1009.1
20260503203130 16 300 8.0 20.9 0.00 0.00 0.00 35 1009.3
20260503202627 16 337 8.0 14.5 0.00 0.00 0.00 35 1009.3
20260503202125 16 344 1.6 12.9 0.00 0.00 0.00 36 1009.3
20260503201623 16 347 1.6 9.7 0.00 0.00 0.00 37 1009.1
20260503201120 16 302 9.7 20.9 0.00 0.00 0.00 36 1009.6
20260503200616 16 294 8.0 12.9 0.00 0.00 0.00 35 1009.4
20260503200112 16 258 3.2 8.0 0.00 0.00 0.00 36 1009.3
20260503195610 16 2 4.8 11.3 0.00 0.00 0.00 38 1009.6
20260503195106 15 243 4.8 12.9 0.00 0.00 0.00 38 1009.6
20260503194604 16 257 3.2 12.9 0.00 0.00 0.00 38 1009.5
20260503194058 16 337 8.0 17.7 0.00 0.00 0.00 36 1009.8
20260503193555 15 238 4.8 12.9 0.00 0.00 0.00 37 1010.0
20260503193050 15 323 11.3 12.9 0.00 0.00 0.00 38 1010.1
20260503192547 15 330 3.2 11.3 0.00 0.00 0.00 37 1009.8
20260503192043 15 351 8.0 11.3 0.00 0.00 0.00 37 1009.9
20260503191540 15 346 4.8 11.3 0.00 0.00 0.00 38 1009.9
20260503191036 15 237 9.7 14.5 0.00 0.00 0.00 36 1010.0
20260503190533 15 288 1.6 14.5 0.00 0.00 0.00 38 1010.0
20260503190031 15 3 3.2 4.8 0.00 0.00 0.00 38 1010.3
20260503185527 15 340 4.8 4.8 0.00 0.00 0.00 37 1010.3
20260503185027 16 247 4.8 20.9 0.00 0.00 0.00 35 1010.3
20260503184523 15 292 3.2 12.9 0.00 0.00 0.00 37 1010.2
20260503184020 15 345 11.3 14.5 0.00 0.00 0.00 37 1010.4
20260503183516 15 262 8.0 14.5 0.00 0.00 0.00 36 1010.3
20260503183014 15 298 6.4 17.7 0.00 0.00 0.00 38 1010.5
20260503182512 15 336 4.8 11.3 0.00 0.00 0.00 38 1010.5
20260503182009 14 358 6.4 12.9 0.00 0.00 0.00 40 1010.4
20260503181507 14 211 3.2 9.7 0.00 0.00 0.00 39 1010.5
20260503181002 15 337 4.8 9.7 0.00 0.00 0.00 42 1010.2
20260503180500 13 322 8.0 9.7 0.00 0.00 0.00 40 1010.4
20260503175957 14 2 4.8 20.9 0.00 0.00 0.00 37 1010.5
20260503175455 15 304 4.8 14.5 0.00 0.00 0.00 38 1010.6
20260503174951 14 319 4.8 9.7 0.00 0.00 0.00 41 1010.6
20260503174449 13 335 6.4 14.5 0.00 0.00 0.00 39 1010.4
20260503173944 13 309 3.2 9.7 0.00 0.00 0.00 39 1010.6
20260503173440 14 312 4.8 17.7 0.00 0.00 0.00 37 1010.6
20260503172937 15 322 4.8 8.0 0.00 0.00 0.00 38 1010.5
20260503172434 13 37 6.4 8.0 0.00 0.00 0.00 37 1010.7
20260503171931 13 258 4.8 16.1 0.00 0.00 0.00 39 1010.6
20260503171427 13 10 4.8 8.0 0.00 0.00 0.00 38 1010.6
20260503170925 13 355 8.0 11.3 0.00 0.00 0.00 39 1010.9
20260503170421 14 283 4.8 9.7 0.00 0.00 0.00 37 1010.8
20260503150814 10 324 3.2 8.0 0.00 0.00 0.00 46 1012.6
20260503150309 10 330 8.0 20.9 0.00 0.00 0.00 46 1012.7
20260503140234 10 348 9.7 16.1 0.00 0.00 0.00 50 1013.3
20260503131203 9 50 4.8 4.8 0.00 0.00 0.00 54 1013.4
20260503130701 8 350 1.6 8.0 0.00 0.00 0.00 61 1013.5
20260503130158 8 327 1.6 4.8 0.00 0.00 0.00 61 1013.3
20260503120124 6 305 1.6 4.8 0.00 0.00 0.00 65 1013.4
20260503110551 3 282 3.2 3.2 0.00 0.00 0.00 78 1013.0
20260503090438 2 328 0.0 1.6 0.00 0.00 0.00 82 1012.3
20260503081404 3 284 1.6 1.6 0.00 0.00 0.00 73 1012.1
20260503080901 3 331 0.0 0.0 0.00 0.00 0.00 72 1012.0
20260503080358 4 316 1.6 1.6 0.00 0.00 0.00 71 1012.1
20260503072835 5 325 1.6 3.2 0.00 0.00 0.00 67 1011.6
20260503072332 5 308 4.8 4.8 0.00 0.00 0.00 68 1011.6
20260503071828 5 316 1.6 3.2 0.00 0.00 0.00 67 1011.6
20260503071326 5 320 0.0 4.8 0.00 0.00 0.00 67 1011.5
20260503070821 5 309 0.0 3.2 0.00 0.00 0.00 66 1011.6
20260503070320 5 320 1.6 1.6 0.00 0.00 0.00 67 1011.6
20260503060244 6 340 1.6 3.2 0.00 0.00 0.00 63 1011.6
20260503054731 6 348 4.8 4.8 0.00 0.00 0.00 62 1011.5
20260503054228 6 357 4.8 9.7 0.00 0.00 0.00 60 1011.7
20260503053726 6 330 1.6 3.2 0.00 0.00 0.00 62 1011.7
20260503053225 6 350 1.6 3.2 0.00 0.00 0.00 61 1011.8
20260503052721 6 10 3.2 8.0 0.00 0.00 0.00 61 1011.7
20260503052217 6 329 4.8 4.8 0.00 0.00 0.00 60 1011.8
20260503051713 6 345 3.2 4.8 0.00 0.00 0.00 62 1011.7
20260503051211 6 348 1.6 3.2 0.00 0.00 0.00 61 1011.7
20260503050707 6 341 1.6 3.2 0.00 0.00 0.00 61 1011.8
20260503050203 6 313 3.2 4.8 0.00 0.00 0.00 62 1011.9
20260503045701 6 342 0.0 1.6 0.00 0.00 0.00 67 1011.9